ARIANE 2 DEB, 26717

Orbit data source: Space-Track

ARIANE 2 DEB, 26717 is space debris in HEO originally from a launch on Fri, 27 Jan 1989 UTC launched from the French Guiana (FRGUI). Debris objects in space refer to the collection of defunct objects orbiting the Earth. Examples of debris include non-operational satellites, rocket bodies, and fragments generated from explosions, collisions, or faulty payload assembly.

Loading next visibility...
Identifier
26717, 1989-006C
Orbit
HEO
Country
Flag of FRFR
Related business
Manufacturer
EADS/LV
Mission
Spacecraft
Bus & Motor
Unknown
Mass
Unknown
Launch date (UTC)
1989-01-27 (37 years ago)
Launch vehicle
Unknown
Launch site
French Guiana (FRGUI)
Object type
Payload
Rocket body
Debris
Shape & HBR
Unknown shape, 1.5 m
Radar Cross Section
Large (>1 m²)

Expand to show TLE details & history
Last TLE update: 1 day ago

TLE from 1 day ago
0 ARIANE 2 DEB
1 26717U 89006C   25285.98369795 -.00000190  00000-0  51938-3 0  9994
2 26717   7.9468 245.0707 7152040 106.7969 352.9330  2.26336478204878
Epoch: 2025-10-12T23:36Z
TLE epoch observation values (Epoch: 2025-10-12T23:36:31.502Z)
Latitude
6.35156°
Longitude
-78.72371°
Altitude
2,057.892 km
Speed
8.844 km/s
True Right ascension
19h 48m 48s
True Declination
6° 19' 11"
Sunlit
Object was in daylight at epoch
Visualization orbit readout
Latitude
Unknown
Longitude
Unknown
Altitude
Unknown
Speed
Unknown
Apparent Right ascension
Unknown
Apparent Declination
Unknown
Sunlit
N/A
Visualization observer readout
Local Sidereal Time
04:40:18
Azimuth
Unknown
Elevation
Unknown
Doppler factor
Unknown
Orbital elements
Apogee altitude
35,659.551 km
Perigee altitude
601.887 km
Semi-major axis
24,508.856 km
Eccentricity
0.7152
Inclination
7.9468°
RAAN
245.0707°
Arg. of periapsis
106.7969°
True anomaly
306.46675°
Mean anomaly
352.933°
Eccentric anomaly
336.77077°
Mean motion
0.56566 °/min
Orbital period
636.42 mins
BSTAR
0.00051938
Loading maneuver chart data...
Computing Atmospheric mass density...
Loading historical data...
Loading historical data...
Loading historical data...
Loading historical data...
Loading historical data...
Loading historical data...
Loading historical data...

Documentation

Showing up to 5 results
|